GFSFLT1_sfc_temp_000.txt.gz
Temp
82 81 81 81 81 81 81 81 81 81 81 81 81 80 80 79 78 78 80 78 80 80 80 79 79 79 79 79 79 79 78 79 79
82 81 81 80 80 80 81 81 81 81 81 81 81 80 79 78 75 79 80 78 80 80 80 79 79 79 79 78 79 78 78 78 78
82 81 80 80 80 80 80 80 81 81 81 80 80 78 77 77 76 77 77 78 80 81 79 79 79 79 78 78 78 79 78 78 78
82 81 81 80 80 80 80 80 80 80 80 79 78 76 73 71 71 74 75 78 80 81 79 78 78 79 79 79 78 77 78 77 77
81 81 81 80 80 81 80 80 79 79 78 79 77 75 73 70 70 70 71 77 81 80 79 78 78 79 79 78 78 77 77 77 77
74 79 80 81 81 81 81 80 79 77 77 77 76 75 68 69 69 71 72 77 80 80 78 78 78 79 79 77 77 77 76 77 75
76 76 79 80 80 80 81 80 79 76 73 71 74 70 70 70 70 72 73 77 80 81 78 78 78 78 78 77 77 77 77 77 76
68 67 68 68 76 72 74 73 73 73 71 71 70 70 70 70 70 75 76 78 80 80 80 78 78 78 78 78 77 76 76 75 76
65 67 65 66 67 68 68 69 72 71 71 70 70 70 69 68 71 73 75 77 79 80 80 78 77 77 77 77 77 76 76 76 75
62 63 64 64 65 67 67 68 70 71 71 70 69 70 72 70 72 71 74 76 78 79 80 78 78 77 77 77 77 76 75 76 76
61 61 62 62 63 64 65 66 68 69 71 70 69 69 69 71 70 71 71 75 76 78 79 79 78 78 78 77 76 76 77 75 76
60 59 60 61 62 63 62 63 65 65 69 68 70 68 67 68 70 70 72 72 74 76 77 78 78 78 78 78 76 76 76 75 75
59 58 59 60 60 60 59 59 59 61 63 66 68 70 66 66 68 70 72 72 73 73 75 77 78 78 78 78 77 76 77 76 75
59 58 58 59 58 57 58 58 57 57 59 63 66 67 69 66 70 68 70 71 72 73 73 74 75 77 78 78 77 76 76 76 75
58 57 58 58 56 55 56 55 56 56 58 63 64 65 68 69 68 68 69 70 72 72 72 72 72 74 77 78 78 77 76 76 74
58 56 57 57 55 55 56 54 54 53 55 56 56 59 61 63 66 66 67 68 70 72 71 72 71 72 75 76 77 78 77 76 75
60 57 56 56 54 54 54 53 51 52 54 50 50 47 52 59 64 65 66 66 69 70 73 72 72 72 71 72 74 75 77 77 75
58 58 56 55 54 52 52 52 51 49 52 51 47 43 44 49 56 57 59 66 64 67 71 72 72 73 71 71 72 71 74 76 76
59 58 57 55 54 52 52 57 52 50 48 51 54 48 47 44 45 55 56 58 66 67 67 72 73 73 70 71 70 71 72 73 75
58 57 56 54 53 53 53 52 51 53 52 48 46 45 47 48 46 45 50 55 59 66 69 69 73 71 70 70 70 70 70 71 73

GFSFLT1_sfc_temp_003.txt.gz
Temp
82 82 81 80 80 80 80 80 81 81 81 80 80 80 80 79 75 75 77 75 81 81 79 79 79 79 79 79 79 78 78 78 78
81 81 81 81 81 80 80 80 81 81 81 81 80 80 78 74 72 73 76 76 81 80 79 79 79 79 79 79 79 78 78 78 78
81 81 81 81 80 80 80 80 80 80 80 80 80 78 75 73 70 71 73 78 80 80 79 79 79 79 79 78 79 78 78 78 79
80 80 80 81 80 81 80 80 80 79 79 79 79 76 72 69 69 74 71 78 81 81 79 78 78 79 78 79 78 77 77 78 78
78 78 79 80 80 80 80 80 79 78 78 78 78 76 73 69 69 69 70 75 80 81 79 78 78 79 79 79 78 77 77 77 77
69 75 77 79 79 79 79 79 78 77 77 77 77 76 68 67 67 68 73 75 78 81 79 78 78 79 79 79 78 77 77 77 76
70 70 74 75 77 76 76 76 76 75 68 69 73 70 68 67 69 71 73 75 76 80 79 78 78 78 79 78 77 77 77 77 76
61 60 61 62 70 66 68 67 68 67 66 67 67 69 69 68 68 72 73 74 76 79 79 78 78 78 79 78 78 77 77 77 77
58 58 59 59 60 60 60 61 64 65 65 66 66 67 67 68 70 70 73 75 76 79 80 78 78 78 79 78 78 77 77 77 76
57 57 58 58 59 59 59 59 61 62 64 65 63 68 67 69 70 71 73 75 76 79 80 80 78 78 78 78 77 76 76 77 76
56 56 57 57 57 58 58 57 58 60 60 64 65 63 67 68 69 69 69 74 75 78 80 80 78 78 78 78 77 76 76 76 76
56 55 55 56 57 58 57 57 57 57 61 59 63 64 61 66 68 68 68 70 73 75 78 79 79 78 78 78 77 76 76 76 76
55 55 55 56 56 56 55 55 54 54 53 55 58 61 64 63 66 68 68 69 71 72 75 77 78 78 78 78 78 76 76 76 76
55 54 54 55 54 53 54 54 52 52 53 58 59 60 61 62 65 65 68 69 70 68 72 75 75 77 78 79 78 76 76 76 75
55 54 54 55 53 52 52 52 52 52 52 59 58 54 57 60 59 59 64 66 69 69 69 70 74 75 76 77 79 77 76 76 76
55 53 53 53 52 52 52 51 50 49 51 49 52 51 56 53 58 56 56 59 66 68 68 69 71 73 75 75 77 78 77 77 76
56 54 53 53 51 51 51 50 47 48 50 47 49 44 49 51 55 57 57 56 59 60 68 68 70 72 73 72 73 75 78 77 76
55 54 53 52 50 49 49 49 48 45 47 48 45 42 41 47 52 53 55 56 58 59 61 68 68 70 72 71 71 71 74 76 77
55 55 53 51 50 49 49 54 49 46 44 46 52 46 45 42 41 50 51 53 58 57 58 59 66 67 68 72 71 71 72 73 75
55 54 53 51 50 49 49 49 48 47 46 45 45 44 43 43 42 40 45 50 55 56 57 56 55 66 67 67 70 71 71 72 73

GFSFLT1_sfc_temp_006.txt.gz
Temp
82 82 81 81 80 80 80 80 80 80 80 80 80 80 80 78 73 73 74 74 81 81 81 79 79 80 80 80 80 79 79 78 78
81 81 81 81 80 80 80 80 80 80 80 80 80 79 78 73 71 72 73 74 81 81 80 79 79 79 79 79 79 78 79 78 77
79 80 80 80 80 80 80 80 79 79 79 79 80 79 77 73 71 71 72 75 80 81 79 79 79 79 79 79 79 79 78 77 78
77 78 79 79 79 79 80 80 79 79 78 78 79 76 73 69 69 72 71 78 80 81 79 79 79 79 78 78 79 78 78 78 78
74 75 77 78 78 78 77 77 78 78 78 78 78 77 74 69 68 68 69 75 80 80 79 79 79 79 78 79 78 78 78 78 78
64 72 74 75 75 75 75 75 75 74 73 74 76 76 71 69 67 66 71 75 78 80 78 79 78 79 79 79 78 78 78 78 78
66 67 71 72 72 72 72 72 71 69 62 64 69 68 68 67 67 70 72 74 77 78 79 78 78 78 78 79 78 78 77 78 77
57 56 57 57 66 62 63 62 63 61 60 61 60 66 67 67 67 70 73 74 76 77 78 77 78 78 79 79 78 77 78 78 76
54 54 55 55 56 56 56 56 59 60 60 58 59 60 63 67 68 71 72 74 76 77 78 78 77 78 78 78 78 77 78 77 77
54 54 54 54 55 55 55 55 56 57 58 59 57 58 58 61 64 68 72 75 76 77 78 79 78 78 78 78 78 77 77 77 77
53 53 54 54 54 55 54 54 53 53 55 57 58 55 57 60 61 63 65 72 74 77 77 78 80 79 78 78 78 77 77 77 76
53 53 53 52 54 55 54 54 54 53 56 53 57 58 56 58 59 62 64 66 71 73 74 77 78 79 78 78 77 77 76 76 76
54 53 53 53 54 53 53 52 51 51 50 50 52 54 56 57 59 60 61 62 65 68 71 74 77 79 78 78 78 77 76 76 76
53 52 52 53 52 52 52 52 50 50 50 54 53 51 54 57 58 55 58 59 58 61 66 71 73 75 78 78 78 77 76 76 76
53 52 52 52 51 50 50 49 50 49 49 56 53 49 50 51 55 51 57 56 57 57 59 61 68 73 74 77 78 78 77 76 76
53 51 51 51 50 50 50 49 48 47 48 45 48 46 47 49 49 56 55 55 56 55 59 60 63 69 73 74 77 78 78 77 76
55 51 50 50 49 49 49 48 45 45 46 44 42 40 47 46 52 48 52 53 52 54 57 60 61 59 69 72 73 74 77 78 76
53 52 50 49 48 47 47 47 46 43 45 46 43 38 37 46 47 49 51 49 52 51 54 58 59 58 54 69 71 71 73 76 77
53 53 51 49 48 47 47 51 46 44 43 43 48 43 43 40 41 50 50 51 51 51 52 55 57 56 55 56 69 71 72 72 75
53 52 50 49 47 47 47 47 46 44 43 42 42 41 42 41 39 39 45 50 51 51 51 52 55 55 55 56 58 70 70 72 73

GFSFLT1_sfc_temp_009.txt.gz
Temp
81 81 81 80 80 80 80 79 79 80 80 80 80 80 80 77 72 72 73 73 79 81 81 80 79 80 80 81 81 80 79 79 79
80 80 80 80 80 80 80 79 79 79 79 80 80 79 78 72 70 71 72 73 79 81 81 78 79 80 80 80 79 79 79 78 79
78 79 79 79 78 78 79 79 79 79 78 79 79 79 77 72 71 70 70 74 78 80 79 79 79 79 79 79 79 79 79 79 78
76 77 78 77 77 77 76 77 76 76 76 78 78 76 74 68 69 72 69 74 80 79 78 77 79 79 79 79 79 79 78 79 79
73 73 75 75 75 75 75 75 74 74 74 75 75 77 75 69 68 68 68 75 77 80 79 78 78 79 79 78 79 79 78 79 78
61 71 73 73 73 73 73 73 72 71 69 71 72 71 69 70 67 68 71 74 76 78 79 78 78 79 79 78 78 78 78 78 78
62 66 69 71 69 70 70 70 69 65 59 58 64 61 64 67 68 67 72 74 76 77 78 79 77 78 79 78 79 78 78 78 78
54 54 54 54 63 58 59 58 59 58 57 57 56 58 59 61 66 71 72 74 76 77 78 77 78 77 78 78 78 78 78 77 78
52 52 53 53 53 54 53 53 55 55 56 53 53 53 55 59 62 65 70 73 74 77 78 78 78 77 78 79 78 78 77 78 78
52 52 52 52 53 52 52 52 53 52 54 53 52 52 52 53 57 58 67 70 71 74 76 77 78 78 77 78 78 77 77 78 77
52 51 52 52 51 52 52 51 51 51 51 53 53 52 51 53 54 58 56 66 68 69 71 73 75 77 77 78 78 77 77 77 77
52 51 51 50 51 53 52 52 51 50 53 49 52 53 51 52 52 55 58 57 63 65 66 69 71 73 76 77 77 77 77 77 76
52 51 51 51 51 51 51 50 50 49 48 47 49 49 50 51 52 53 54 55 57 59 63 66 68 69 72 75 76 77 77 76 76
52 51 50 51 50 50 50 50 48 48 48 51 50 49 48 48 54 49 52 52 52 54 59 63 64 67 70 71 75 76 77 76 76
51 50 50 50 50 49 49 48 48 47 47 53 51 47 47 48 48 50 55 53 53 50 53 55 58 65 67 68 70 75 76 76 75
51 50 50 50 49 48 48 47 46 46 45 43 45 43 45 44 47 48 48 51 54 49 51 53 56 59 63 63 65 64 75 77 76
52 50 49 49 48 48 47 46 44 44 44 42 39 38 41 42 51 45 48 46 49 52 53 50 53 56 56 58 62 63 63 76 76
52 50 49 48 47 46 46 45 44 42 43 44 42 37 34 45 43 46 46 46 46 47 47 50 52 53 55 58 58 59 63 66 75
52 51 50 48 46 45 45 49 45 42 41 42 46 42 40 37 38 44 46 46 48 48 49 51 51 51 51 57 59 59 60 62 73
51 51 49 48 46 46 46 45 44 43 42 40 40 39 39 38 38 38 45 49 48 50 51 51 50 49 50 54 56 59 58 60 61

GFSFLT1_sfc_temp_012.txt.gz
Temp
81 80 80 80 80 80 79 79 79 79 80 80 80 80 80 76 72 72 74 74 77 81 80 79 80 79 80 80 80 80 79 79 80
79 79 79 79 78 79 79 79 79 79 79 79 80 79 77 71 70 71 72 73 78 80 80 79 79 79 80 80 80 79 79 79 79
78 78 78 78 77 76 77 76 77 76 77 78 78 78 76 72 70 70 70 75 78 81 79 79 78 78 79 79 79 79 79 78 78
76 76 76 76 76 75 75 75 75 75 75 75 76 76 74 69 69 72 70 75 78 79 80 79 78 78 79 79 79 79 79 78 79
74 73 74 74 74 74 74 74 73 73 73 74 73 71 72 69 68 68 69 75 77 78 78 79 79 77 79 79 79 79 79 78 79
61 71 73 73 72 72 72 71 71 68 68 70 70 67 63 67 68 69 73 75 76 78 78 78 78 78 79 79 79 79 78 78 78
62 66 69 70 69 69 69 68 66 62 57 58 61 57 58 61 63 69 73 75 76 77 77 78 78 78 79 79 79 78 78 78 78
53 52 52 52 61 55 57 55 56 55 55 55 54 55 55 55 59 65 71 72 74 75 76 77 77 78 77 79 78 79 78 78 77
51 51 51 51 51 51 51 51 52 53 53 50 51 50 53 55 57 60 68 70 71 72 73 74 75 76 77 78 78 78 78 78 78
51 50 50 50 51 51 50 50 50 50 52 52 50 50 49 50 53 54 65 67 68 70 71 72 72 73 74 76 78 78 78 78 78
51 50 50 50 50 50 50 49 49 49 49 50 51 49 49 50 50 53 53 64 65 67 68 69 71 71 72 74 73 77 77 77 77
50 50 49 49 50 51 51 50 49 49 51 47 49 50 48 50 50 52 53 53 60 63 65 67 68 69 71 72 73 71 76 76 77
50 50 49 50 50 50 49 48 48 48 47 46 47 47 48 48 49 50 51 51 53 56 62 64 65 67 69 71 72 72 70 76 76
50 49 49 50 49 48 49 48 47 47 47 50 48 47 46 46 52 48 50 51 51 51 57 60 61 64 66 68 69 69 70 71 76
50 49 49 49 49 48 47 47 47 46 45 51 49 45 44 46 46 48 52 50 51 49 51 50 53 61 64 65 66 67 68 68 69
50 48 49 48 48 47 47 46 45 45 43 43 44 42 43 43 45 46 47 48 50 48 50 50 51 53 59 60 63 66 67 66 68
50 49 48 48 47 46 46 45 43 43 43 42 38 37 40 42 46 48 47 46 47 49 52 49 49 50 51 54 59 60 64 65 66
50 49 47 47 46 46 45 44 44 42 42 42 41 36 34 39 41 44 44 45 45 46 47 49 50 50 49 53 53 57 61 64 64
50 49 48 47 45 45 45 47 43 42 41 41 45 40 39 36 35 41 44 45 46 46 46 48 49 49 49 52 55 57 59 62 62
49 49 48 46 45 45 45 44 43 41 41 40 40 38 38 37 36 38 41 48 46 46 46 47 48 49 49 48 51 57 59 61 61

GFSFLT1_sfc_temp_015.txt.gz
Temp
80 80 80 79 79 79 79 78 79 79 79 80 80 80 78 78 82 81 81 83 80 81 79 79 79 80 79 80 80 80 80 80 79
79 79 78 78 78 78 77 77 78 78 78 79 80 79 77 82 81 81 81 81 78 81 80 80 79 78 79 80 80 80 79 79 79
77 78 77 77 77 76 76 76 76 76 76 77 79 77 76 80 80 80 79 77 79 80 81 80 79 79 78 79 79 79 78 78 79
76 76 76 76 76 75 75 75 74 75 75 74 74 75 74 78 78 79 78 76 78 79 79 80 79 79 78 79 79 79 79 78 79
74 74 75 74 74 74 73 73 72 72 72 72 71 70 70 76 76 76 77 76 78 79 79 78 79 79 78 79 79 79 79 78 79
74 73 73 73 72 72 71 70 69 68 69 69 69 70 68 72 74 75 73 76 78 78 78 78 78 78 78 79 79 79 79 78 78
72 71 70 70 70 69 69 68 67 68 70 70 68 70 70 71 73 74 72 74 76 75 75 76 77 78 79 79 79 79 78 78 78
68 66 67 67 66 67 68 68 68 66 67 68 68 68 70 70 71 71 70 71 73 74 74 74 74 75 75 78 78 79 78 78 78
67 66 66 65 66 66 66 66 66 66 66 68 68 68 68 68 69 68 68 69 70 72 72 73 73 74 74 75 76 78 79 78 78
66 66 66 65 66 66 66 66 66 66 67 67 67 67 66 66 67 67 65 67 68 70 71 72 72 72 73 74 74 74 77 78 78
65 65 64 65 66 66 66 65 65 65 67 65 65 65 65 66 65 66 65 64 65 67 68 69 70 71 72 72 73 73 72 77 77
65 65 65 65 66 66 66 65 66 65 65 65 65 64 64 64 65 65 65 65 62 63 65 66 67 68 70 71 71 71 71 72 75
64 64 64 64 64 64 64 64 63 63 64 65 65 64 65 64 65 64 64 64 64 63 62 63 64 66 67 69 69 69 70 70 70
64 64 63 63 63 64 64 62 63 62 62 63 64 64 64 64 65 64 63 62 62 63 61 60 61 63 65 66 67 68 69 70 69
63 62 62 63 62 62 62 62 62 61 60 62 62 63 63 63 63 62 65 64 62 63 62 62 63 61 62 63 65 66 67 68 69
62 62 62 61 62 61 61 61 60 60 60 59 60 61 62 62 62 64 64 63 63 63 62 63 62 63 61 61 62 64 65 66 68
62 62 61 61 60 59 59 59 58 59 59 57 55 53 58 61 63 63 62 62 62 62 63 63 63 62 62 61 59 59 62 64 66
63 62 61 61 60 59 58 58 57 57 58 57 57 53 51 53 59 61 61 61 61 62 62 63 63 63 63 61 60 58 60 62 64
61 61 61 61 60 59 58 58 58 57 56 57 57 56 55 51 49 58 59 61 60 61 61 62 62 63 62 60 58 58 58 60 62
60 61 60 60 59 60 59 58 57 57 57 56 56 53 54 52 47 47 53 58 60 61 60 61 62 62 61 60 59 58 58 60 61

GFSFLT1_sfc_temp_021.txt.gz
Temp
79 79 79 78 78 78 78 78 79 79 80 81 80 80 80 79 83 82 82 82 81 81 81 81 81 80 80 80 80 80 80 80 79
78 78 77 77 77 77 77 77 78 78 79 80 79 79 79 83 82 82 79 80 80 81 81 80 80 80 80 80 80 80 79 79 79
77 77 77 76 76 76 76 76 76 76 77 78 77 78 78 83 81 78 80 78 80 80 80 80 80 80 79 80 80 79 79 79 79
76 76 76 76 75 75 74 75 74 74 74 75 76 76 78 81 80 81 79 78 79 80 79 79 79 79 79 79 79 79 79 78 79
75 75 75 74 74 73 73 73 73 73 73 74 74 74 77 81 83 78 75 77 78 78 78 78 79 79 79 79 80 79 79 79 78
79 73 73 73 72 72 72 72 73 73 73 74 75 76 83 84 83 77 74 76 77 77 76 77 77 78 78 79 79 79 79 79 78
79 74 72 72 71 71 72 72 74 77 82 81 78 82 82 82 81 74 72 74 75 75 75 75 75 76 76 77 78 79 79 78 78
81 75 76 75 73 79 78 79 78 78 79 79 80 80 81 82 79 71 70 71 73 74 74 74 74 74 75 75 75 76 78 78 78
81 81 78 77 79 78 78 78 77 77 79 81 81 80 80 81 79 68 68 70 71 72 72 72 73 73 74 74 74 75 74 76 78
81 80 79 78 78 79 78 78 78 78 78 78 79 79 78 78 77 71 66 67 69 70 70 71 71 72 72 73 73 73 73 74 75
80 79 78 78 79 79 79 78 77 77 78 76 76 76 77 76 75 75 67 66 66 67 68 69 69 70 71 71 71 71 72 72 72
80 79 78 79 79 79 78 78 77 75 76 75 76 75 75 75 75 74 73 69 65 65 66 66 67 68 69 69 69 70 70 71 71
80 78 77 78 77 75 75 74 73 74 74 75 75 75 74 74 74 72 71 70 70 69 66 65 65 66 67 68 68 68 69 69 70
78 77 77 76 74 74 73 73 73 72 72 72 74 75 74 74 75 73 71 70 69 68 68 67 66 66 66 66 67 67 68 68 68
77 76 75 75 72 72 71 72 72 71 71 72 73 74 73 72 72 73 74 72 70 68 68 67 69 68 67 67 66 66 67 67 67
75 74 74 73 71 71 71 71 69 68 70 67 70 71 73 73 72 72 73 72 71 70 69 69 69 69 70 69 67 66 66 66 66
74 73 72 71 70 70 69 68 67 68 69 66 65 63 67 70 72 72 71 71 71 70 71 71 70 68 68 68 67 65 65 65 65
74 73 73 71 70 68 67 67 65 64 67 68 65 61 61 64 70 70 70 69 69 70 70 70 69 69 69 68 67 65 65 64 64
73 74 73 72 71 69 68 69 66 65 64 65 67 67 65 59 58 68 68 70 69 68 68 69 69 69 68 67 66 66 65 64 63
72 73 72 71 70 70 69 68 66 66 65 64 64 63 63 64 58 55 60 66 68 69 68 68 68 68 67 66 66 66 65 63 63

GFSFLT1_sfc_temp_024.txt.gz
Temp
79 79 78 77 77 78 78 79 79 79 80 80 80 80 81 81 78 77 77 76 81 81 80 80 80 80 80 80 80 80 80 79 79
78 78 77 77 77 77 77 78 78 79 79 79 79 79 79 79 77 77 77 75 80 80 80 80 80 80 80 80 80 80 79 79 79
77 77 77 76 76 76 76 76 76 78 78 78 78 78 79 79 77 76 76 77 79 80 79 79 79 79 79 79 79 79 79 79 79
76 76 76 75 75 74 75 75 75 75 75 76 75 77 78 77 76 78 74 77 79 79 79 79 79 79 79 79 79 79 78 79 79
76 75 75 74 74 74 73 74 74 74 74 75 75 76 76 78 74 71 73 77 78 78 78 78 78 79 79 79 79 79 79 78 78
69 73 74 73 73 73 73 73 73 74 75 75 76 76 72 74 70 68 73 76 76 77 77 76 77 78 78 78 79 79 79 78 78
71 70 73 73 73 73 73 74 75 75 67 67 73 69 72 71 67 66 72 74 75 75 75 75 75 76 76 76 77 78 78 78 78
65 61 63 61 69 64 67 67 65 67 66 66 66 69 68 67 65 67 70 72 73 74 73 74 74 75 75 75 76 76 77 78 78
65 63 63 63 63 65 64 63 64 65 68 64 65 66 65 65 61 63 69 70 71 72 72 72 73 73 74 74 74 74 75 75 77
66 64 64 63 64 64 63 63 64 64 65 65 65 63 63 63 62 57 68 68 69 70 71 71 72 72 72 72 72 72 73 73 74
65 65 64 63 64 64 64 63 62 62 62 64 65 63 62 63 63 58 59 68 68 68 69 69 70 70 71 71 71 71 71 72 72
66 64 63 63 64 65 64 63 62 62 65 61 62 64 62 63 62 62 57 61 67 67 67 67 67 68 69 69 69 69 70 70 71
65 64 63 63 63 62 61 60 59 59 59 58 60 60 62 62 62 62 60 59 61 64 67 66 66 66 67 68 68 68 69 69 69
64 63 62 63 61 60 61 59 59 57 57 60 60 60 59 60 66 60 61 59 58 58 65 68 67 66 67 67 67 67 67 68 68
64 62 62 61 59 58 58 58 58 57 57 65 62 58 59 59 58 59 62 59 59 58 59 56 59 67 69 69 68 67 67 67 67
63 60 61 59 58 57 59 58 57 55 56 54 54 56 59 57 58 59 59 59 59 57 58 56 56 59 70 69 69 69 68 67 66
64 60 59 59 57 58 57 57 54 55 55 52 50 48 52 55 59 57 60 58 58 59 61 58 58 57 56 60 68 67 66 66 66
66 62 60 59 57 55 55 55 54 51 53 55 51 47 46 49 54 56 56 56 55 56 57 59 60 58 56 60 61 66 66 67 66
65 64 61 61 57 56 56 58 54 53 50 52 58 52 51 46 46 52 53 56 57 55 55 55 57 57 56 62 65 66 67 66 65
66 65 63 61 60 57 57 56 55 53 51 50 50 50 50 50 46 43 48 52 54 54 54 54 55 57 56 55 59 66 66 65 65

GFSFLT1_sfc_temp_027.txt.gz
Temp
79 78 78 77 78 78 79 80 79 79 80 80 80 81 80 79 77 74 75 75 81 81 80 80 80 80 80 80 80 80 80 79 79
78 77 77 77 77 77 78 78 79 79 79 79 79 80 79 77 76 76 75 74 80 80 80 80 80 79 79 79 79 79 79 79 78
77 77 76 76 76 76 76 76 77 79 79 78 78 79 79 77 75 74 74 77 80 80 79 79 79 79 79 79 79 79 79 79 79
77 76 76 75 75 75 75 75 75 76 78 76 77 78 77 73 74 76 73 77 79 79 78 79 79 79 79 79 79 79 78 79 78
76 75 75 75 74 74 74 75 75 75 75 75 76 77 76 70 69 68 72 78 79 78 78 78 78 78 79 79 79 79 79 78 78
68 72 74 74 74 74 74 74 74 75 75 76 77 76 69 68 66 67 74 76 77 76 76 76 77 77 77 78 78 79 78 78 78
67 70 73 74 74 74 74 75 75 73 64 64 70 66 66 65 64 66 73 75 75 75 75 75 76 76 76 77 77 77 78 78 78
61 59 63 60 70 63 66 64 63 64 62 63 64 64 62 60 62 68 72 73 74 74 73 74 74 75 75 75 75 76 76 78 78
58 57 57 57 58 58 59 59 61 62 63 60 60 61 59 57 59 64 70 71 72 72 72 73 73 73 74 74 73 74 74 75 75
59 57 57 57 58 59 58 59 60 60 61 61 61 59 57 56 57 57 70 70 70 71 71 72 72 72 72 72 72 72 72 73 73
59 58 59 58 59 59 59 59 58 59 59 61 62 59 58 57 56 57 59 69 69 69 69 70 70 71 71 70 70 70 71 71 72
60 59 58 58 59 60 59 58 58 57 59 57 59 60 59 59 56 57 56 61 68 68 68 68 68 69 69 69 69 69 69 70 70
60 59 58 59 58 58 57 56 55 55 55 54 55 57 58 59 57 57 56 55 59 64 67 67 66 67 68 68 68 68 68 68 69
60 59 58 58 57 56 57 55 55 54 54 56 55 54 55 57 61 57 57 55 55 55 64 68 67 67 68 68 68 67 67 68 67
60 58 58 57 55 55 54 55 54 54 54 62 59 53 54 54 54 55 59 55 56 55 56 55 57 68 68 69 69 68 67 68 67
60 57 57 56 57 55 55 53 54 52 52 52 51 51 52 53 54 54 54 55 56 54 55 53 54 56 69 69 70 70 69 68 66
61 59 57 56 54 54 54 53 50 51 51 49 46 47 50 50 54 52 56 54 54 55 57 54 54 54 54 57 67 68 68 67 67
65 60 59 57 56 56 52 52 52 49 49 51 49 44 45 45 49 51 52 53 53 53 54 56 57 55 53 59 61 66 66 67 67
65 63 60 59 57 54 56 55 51 50 49 49 54 48 48 45 45 48 49 51 54 52 51 53 55 55 53 59 61 65 67 67 67
65 63 61 60 57 59 54 53 52 50 49 48 47 46 46 45 43 42 46 49 49 51 51 51 51 53 53 53 57 65 66 66 66

GFSFLT1_sfc_temp_030.txt.gz
Temp
79 78 79 79 79 80 80 79 79 79 79 80 81 80 79 78 75 72 75 74 80 80 80 79 79 79 79 79 79 79 79 79 78
78 77 77 78 78 79 78 79 80 79 79 79 80 80 78 74 73 74 72 74 80 80 79 79 79 79 79 79 79 79 79 78 78
77 77 76 76 76 77 77 78 79 79 78 78 80 79 78 74 71 71 71 77 80 79 79 79 79 79 79 79 79 79 79 78 78
77 76 76 76 76 76 75 76 78 79 77 77 78 78 76 69 69 74 71 77 79 78 78 78 78 78 78 79 79 79 78 78 78
76 76 75 75 75 75 75 75 75 75 75 76 77 76 72 68 68 68 70 78 78 78 78 77 77 78 78 79 79 79 78 78 78
70 71 75 75 75 75 75 75 75 75 75 76 76 72 65 65 65 66 75 77 78 78 77 77 77 77 77 77 78 79 78 78 77
67 70 74 74 74 74 75 75 75 73 63 63 69 64 63 63 64 66 75 76 77 77 75 75 76 76 76 77 76 78 78 78 77
61 59 62 59 70 61 65 63 61 61 60 61 61 61 60 60 62 68 73 74 75 74 73 74 74 75 75 75 75 76 77 77 78
57 56 56 56 57 56 56 56 58 59 60 58 58 57 57 57 58 64 71 72 73 73 73 73 73 73 74 73 74 74 74 74 75
56 55 55 54 54 55 55 55 57 57 58 58 57 55 54 55 57 56 70 71 71 71 72 72 72 72 72 72 72 72 72 73 73
57 56 56 55 54 55 55 56 56 56 56 58 58 55 53 54 55 56 59 70 70 70 70 70 71 71 71 70 70 70 71 71 71
60 57 55 55 55 57 55 55 54 54 56 55 56 56 54 54 54 55 55 60 69 68 68 68 69 69 69 69 69 69 69 69 70
60 58 57 56 56 55 54 53 53 53 53 52 54 54 55 54 54 54 54 55 58 65 67 68 67 68 68 68 68 68 68 68 68
62 60 59 56 55 54 54 53 52 51 51 53 52 52 52 54 58 53 54 54 54 54 65 67 67 67 68 68 68 67 67 67 67
63 59 58 56 54 53 52 53 51 51 52 59 57 50 51 51 51 52 56 53 54 53 54 54 56 68 68 70 70 68 67 68 67
62 59 58 56 56 56 53 52 52 50 49 50 50 49 49 49 50 51 51 53 54 52 53 52 52 55 69 69 70 70 70 69 67
63 61 60 58 54 53 52 52 48 49 49 48 44 46 49 48 50 49 52 51 52 53 54 52 53 52 52 56 66 68 69 69 68
66 61 61 58 58 57 55 52 51 49 47 48 48 42 44 43 46 48 49 50 49 50 52 53 53 52 51 57 60 66 67 68 68
64 64 63 61 58 57 56 55 51 49 48 47 51 46 46 44 45 46 47 48 50 49 49 51 53 52 51 57 59 64 66 67 68
65 65 62 62 61 60 58 54 50 50 48 47 44 44 43 42 43 42 45 46 47 48 50 50 50 51 51 50 55 64 66 66 67

GFSFLT1_sfc_temp_036.txt.gz
Temp
78 79 81 81 80 80 80 78 79 79 80 81 80 81 78 75 72 72 75 74 79 80 79 79 79 79 79 79 79 79 78 78 77
77 77 78 78 79 79 79 79 79 79 79 80 80 79 77 71 70 71 72 74 79 79 79 79 79 78 79 79 79 78 78 78 78
77 76 76 77 77 77 77 79 79 78 78 79 79 78 76 72 69 70 70 77 79 79 79 78 78 78 79 79 79 78 78 78 78
76 76 76 76 76 76 76 78 79 78 77 78 78 77 74 68 68 71 70 78 79 79 78 78 78 78 78 79 79 78 78 78 78
76 75 75 75 75 75 75 76 76 76 76 76 76 74 73 67 67 68 71 78 79 78 78 78 78 78 78 79 79 79 78 78 77
66 72 74 75 75 75 75 75 75 74 72 75 76 71 65 66 65 66 76 78 78 78 77 77 77 77 77 78 78 78 78 77 77
66 69 74 74 74 74 74 75 73 68 61 63 68 66 64 64 64 66 75 77 78 77 77 76 76 76 77 76 76 78 78 77 77
62 59 59 58 65 59 60 59 58 58 58 59 60 61 61 61 62 67 74 75 76 75 75 75 75 75 75 75 75 76 77 77 77
58 58 57 56 55 55 54 54 55 56 57 55 57 58 58 58 59 63 72 73 75 74 73 73 73 73 74 74 73 73 73 75 76
57 56 55 54 53 53 53 53 54 53 54 55 55 55 55 56 57 57 70 72 72 72 72 72 72 72 73 72 72 72 72 71 72
57 56 55 53 53 53 53 53 53 52 52 54 54 53 53 54 55 56 57 70 71 71 71 71 71 72 71 70 70 71 71 71 71
59 57 55 54 53 54 52 51 51 51 53 51 52 52 51 53 53 54 55 59 70 70 70 70 70 70 70 69 69 69 69 69 70
62 59 60 57 54 53 51 51 50 50 50 50 50 50 50 51 51 52 53 54 57 65 69 69 69 69 69 68 68 68 68 68 68
61 60 59 59 58 54 52 51 51 50 49 50 49 48 49 50 54 51 52 52 54 54 63 68 68 69 69 69 68 68 67 67 67
57 58 56 57 54 52 51 53 49 50 50 56 54 48 48 48 48 49 53 51 52 52 53 54 57 68 69 69 70 69 68 68 67
57 55 55 54 55 57 55 51 51 49 48 49 48 48 48 47 47 48 48 50 51 50 51 51 51 54 68 69 70 71 71 70 69
61 59 57 54 53 53 52 54 51 49 49 49 44 47 49 46 47 45 48 47 49 50 51 51 51 51 51 56 64 67 70 71 70
59 61 60 57 53 54 52 52 52 56 49 51 51 42 44 42 45 43 45 47 46 48 49 50 51 51 50 56 58 64 67 69 70
55 55 55 55 55 52 55 55 55 51 52 49 52 47 46 46 46 45 44 44 47 46 47 49 50 51 50 55 57 61 64 67 68
54 53 52 52 52 53 58 54 54 54 56 48 44 47 43 41 44 45 46 44 44 46 47 47 48 49 49 49 53 62 64 65 67

GFSFLT1_sfc_temp_042.txt.gz
Temp
79 81 81 80 80 79 79 79 80 80 80 80 81 79 79 80 88 87 85 86 79 80 79 79 79 79 79 79 79 79 79 79 79
77 79 79 79 79 79 78 78 80 80 80 81 80 79 79 88 87 87 87 85 80 79 79 79 79 79 79 79 79 79 79 79 79
77 77 77 77 78 78 77 77 79 80 79 80 79 78 79 87 87 86 87 79 79 79 79 79 79 79 79 79 79 79 79 79 78
77 76 76 76 76 76 76 77 77 77 78 79 78 76 76 88 89 89 90 78 79 79 79 78 78 78 79 79 79 79 79 79 78
76 76 76 76 76 75 75 76 76 75 77 77 77 75 76 87 85 88 86 79 79 79 78 78 78 78 79 79 79 79 79 79 78
82 78 75 75 75 75 75 75 75 73 74 74 74 74 86 85 87 87 77 78 79 78 78 77 78 78 77 77 78 79 78 78 78
82 77 74 75 75 75 75 75 74 73 86 84 74 83 81 78 81 87 76 77 78 77 77 76 77 77 77 77 78 78 78 78 78
84 85 83 83 76 83 79 79 82 82 83 84 85 84 86 86 81 80 74 75 76 76 75 76 75 76 75 75 76 76 77 78 78
85 84 84 82 83 83 82 83 82 80 81 85 85 85 85 85 86 82 73 74 75 75 75 75 75 74 74 74 75 74 75 76 77
85 84 84 83 83 83 83 82 82 82 83 84 84 85 85 85 84 83 71 72 74 75 74 74 74 73 74 73 73 73 72 73 74
78 82 83 83 83 83 83 83 82 82 83 82 82 83 84 83 82 81 79 71 72 74 74 73 73 73 72 72 72 72 72 72 72
72 75 79 82 84 82 82 83 82 81 81 81 82 81 82 81 81 80 79 78 70 72 73 73 73 73 72 71 70 71 71 71 71
67 67 68 71 73 77 79 78 77 78 79 80 81 81 81 81 81 80 78 78 79 72 71 72 72 73 72 71 70 70 70 70 70
77 73 68 68 68 74 75 77 76 77 77 78 80 80 80 79 81 79 77 76 76 77 72 70 70 72 72 72 71 70 69 69 69
75 75 75 72 66 65 71 74 77 75 77 78 78 79 79 78 78 79 79 77 74 74 75 73 73 70 71 72 72 71 70 69 69
74 75 74 73 70 67 65 67 71 72 75 73 74 76 79 79 77 78 79 77 75 75 74 74 75 74 70 70 71 72 71 70 70
74 73 73 73 71 70 67 61 63 67 70 68 69 68 74 76 79 78 77 78 77 75 75 75 75 75 74 71 69 70 72 72 71
73 73 73 73 72 70 69 68 60 55 59 66 61 63 66 75 77 77 77 76 76 76 76 75 75 75 75 71 68 65 68 70 72
73 73 72 72 72 71 70 71 68 62 57 63 65 66 70 69 68 73 74 75 75 74 74 75 75 75 75 71 69 66 66 67 70
72 72 71 70 70 71 70 69 70 68 64 58 61 59 59 67 64 67 70 72 73 75 75 74 75 75 74 73 70 66 66 66 68

GFSFLT1_sfc_temp_048.txt.gz
Temp
79 80 80 80 79 79 79 79 79 80 80 80 80 80 80 80 80 80 79 76 80 80 79 79 79 79 79 79 79 79 79 79 79
78 78 78 78 78 78 78 78 79 80 80 80 80 79 79 78 81 76 76 76 80 80 80 79 79 79 79 79 79 79 79 78 78
77 77 77 77 77 77 77 77 78 79 79 80 79 79 78 80 79 78 74 77 80 80 79 79 79 79 79 79 79 79 79 78 78
77 76 76 76 76 76 76 76 77 77 78 79 78 78 77 74 79 81 75 78 80 80 79 79 78 78 79 79 79 79 79 78 78
77 77 77 76 76 76 76 76 76 75 77 78 77 77 76 74 77 76 75 78 79 79 78 78 79 78 79 79 79 79 79 78 78
75 75 77 76 76 76 76 76 76 75 75 76 77 76 72 75 77 74 77 79 79 78 77 77 78 78 78 78 78 79 78 78 78
77 76 76 76 76 76 76 76 76 75 69 71 75 69 72 74 74 72 77 79 79 78 77 77 77 77 77 77 78 79 78 78 78
74 71 70 68 73 69 72 70 68 68 69 70 70 72 72 72 73 74 76 77 78 77 76 76 76 76 76 76 77 78 78 78 78
72 73 72 70 68 67 69 68 69 70 72 69 70 72 72 72 72 71 75 76 77 77 76 76 76 75 75 75 75 77 77 78 78
69 69 70 73 72 71 70 69 70 69 70 70 71 70 71 72 72 67 74 75 76 76 76 76 76 75 74 75 75 75 76 76 77
67 68 68 68 68 70 71 70 70 69 69 70 71 70 69 70 71 67 68 73 74 75 76 76 76 75 75 74 74 74 74 74 74
65 64 65 68 68 67 68 68 68 68 70 68 69 69 70 69 70 69 65 67 72 73 75 76 75 75 75 74 73 73 73 73 73
64 63 63 65 65 64 65 65 65 65 66 66 67 68 67 69 69 68 67 65 67 70 72 74 75 75 75 74 73 73 72 72 73
63 62 62 63 62 62 62 64 63 63 65 65 67 69 66 66 73 67 67 65 64 63 70 72 73 74 75 75 73 72 72 72 72
62 61 61 62 60 59 60 60 61 63 62 65 70 67 70 65 64 66 69 65 65 62 62 65 67 72 74 75 74 73 72 71 71
61 59 60 60 58 59 60 58 58 57 58 60 62 65 69 66 64 65 65 64 65 62 61 61 60 65 72 73 74 74 73 72 71
64 60 59 59 57 58 58 57 55 55 57 54 57 55 62 68 69 65 69 66 63 65 65 61 61 60 63 62 71 72 73 73 72
62 61 60 59 58 55 56 56 55 52 54 55 53 52 52 53 64 67 68 66 62 64 65 66 64 61 61 64 66 68 71 73 72
62 62 60 59 57 56 55 60 55 52 51 53 56 53 54 50 49 57 59 63 66 62 61 65 65 65 60 64 65 67 68 70 72
61 63 63 58 57 57 57 55 54 54 52 51 51 51 50 51 51 49 55 60 62 60 60 62 61 64 62 59 64 67 67 68 70